This is the latest recevied weather packets stored in our database for station/object KB1FFS. If no packets are shown the sender has not sent any weather packets the latest 10 day(s).
| Time | Temp. | Humidity | Pressure | Rain* | Wind** | Luminosity | Snow |
|---|---|---|---|---|---|---|---|
| 1777754902 | 27.78° C | 31% | 1021 hPa | 0 mm | - | 792 W/m² | - |
| 1777754600 | 27.22° C | 32% | 1021 hPa | 0 mm | - | 804 W/m² | - |
| 1777754297 | 27.78° C | 31% | 1021.2 hPa | 0 mm | - | 797 W/m² | - |
| 1777753995 | 27.78° C | 32% | 1021.2 hPa | 0 mm | - | 827 W/m² | - |
| 1777753695 | 27.78° C | 31% | 1021.5 hPa | 0 mm | - | 822 W/m² | - |
| 1777753393 | 27.78° C | 32% | 1021.4 hPa | 0 mm | - | 832 W/m² | - |
| 1777753091 | 26.67° C | 37% | 1021.6 hPa | 0 mm | - | 834 W/m² | - |
| 1777752786 | 27.22° C | 32% | 1021.7 hPa | 0 mm | - | 840 W/m² | - |
| 1777752483 | 27.22° C | 35% | 1021.8 hPa | 0 mm | - | 851 W/m² | - |
| 1777752179 | 27.78° C | 30% | 1021.7 hPa | 0 mm | - | 860 W/m² | - |
| 1777751877 | 27.78° C | 32% | 1021.6 hPa | 0 mm | - | 865 W/m² | - |
| 1777751573 | 27.78° C | 34% | 1021.8 hPa | 0 mm | - | 876 W/m² | - |
| 1777751270 | 27.22° C | 34% | 1021.8 hPa | 0 mm | - | 881 W/m² | - |
| 1777750967 | 26.67° C | 36% | 1021.8 hPa | 0 mm | - | 884 W/m² | - |
| 1777750663 | 26.11° C | 34% | 1021.7 hPa | 0 mm | - | 895 W/m² | - |
| 1777750360 | 26.67° C | 33% | 1021.8 hPa | 0 mm | - | 906 W/m² | - |
| 1777750060 | 26.67° C | 35% | 1021.9 hPa | 0 mm | - | 918 W/m² | - |
| 1777749758 | 26.11° C | 35% | 1022 hPa | 0 mm | - | 931 W/m² | - |
| 1777749455 | 26.11° C | 34% | 1021.8 hPa | 0 mm | - | 936 W/m² | - |
| 1777749153 | 26.11° C | 36% | 1022 hPa | 0 mm | - | 923 W/m² | - |
| 1777748850 | 26.11° C | 34% | 1021.9 hPa | 0 mm | - | 938 W/m² | - |
| 1777748547 | 26.67° C | 36% | 1022.1 hPa | 0 mm | - | 945 W/m² | - |
| 1777748247 | 26.11° C | 32% | 1022.3 hPa | 0 mm | - | 940 W/m² | - |
| 1777747944 | 26.11° C | 35% | 1022.3 hPa | 0 mm | - | 934 W/m² | - |
| 1777747640 | 25.56° C | 31% | 1022.3 hPa | 0 mm | - | 935 W/m² | - |
* Rain latest hour (hover to see other rain measurements)
** Current wind speed in m/s (hover to see current wind gust speed)